User: anonymous
Location: Caltech
(34.1382°N, 118.1253°W)
Time: 01:40:17
(UTC-07:00)
Language:

SL-16 R/B - Orbit

View from above orbital plane
View from above orbital plane
View from above satellite
View from above satellite

Ground track
Ground track

The orbit data is extracted from the following two-line orbital elements,

1 31793U 07029B   14210.07490083  .00000282  00000-0  17242-3 0   284
2 31793 070.9756 083.1686 0002294 277.8524 187.7034 14.14272037365671
Epoch (UTC): 29 July 2014 01:47:51
Eccentricity: 0.0002294
inclination: 70.9756°
perigee height: 843 km
apogee height: 846 km
right ascension of ascending node: 83.1686°
argument of perigee: 277.8524°
revolutions per day: 14.14272037
mean anomaly at epoch: 187.7034°
orbit number at epoch: 36567

The dashed part of the orbit path shows where the satellite is in the earth's shadow,  

DLR